[Iaude] MPEC F101: 2024 FZ2 [a=0.94,e=0.33,i=9.0,H=22.3]
    mpec at cfa.harvard.edu 
    mpec at cfa.harvard.edu
       
    Fri Mar 29 19:05:57 EDT 2024
    
    
  
M.P.E.C. 2024-F101                               Issued 2024 March 29, 23:04 UT
     The Minor Planet Electronic Circulars contain information on unusual
         minor planets, routine data on comets and natural satellites,
         and occasional editorial announcements.  They are published
    on behalf of Division F of the International Astronomical Union by the
          Minor Planet Center, Smithsonian Astrophysical Observatory,
                          Cambridge, MA 02138, U.S.A.
			  
             Prepared using the Tamkin Foundation Computer Network
                              MPC at CFA.HARVARD.EDU
            URL https://www.minorplanetcenter.net/    ISSN 1523-6714
                                    2024 FZ2                                    
Observations:
     K24F02Z* C2024 03 27.37921110 03 20.172+50 19 52.14         19.76iXEF101F52
     K24F02Z  C2024 03 27.38854710 03 22.834+50 19 13.76         19.65iXEF101F52
     K24F02Z  C2024 03 27.39774510 03 25.432+50 18 35.85         19.37iXEF101F52
     K24F02Z  C2024 03 27.40702010 03 28.070+50 17 57.63         19.87iXEF101F52
     K24F02Z KB2024 03 28.08740 10 07 04.80 +49 33 26.3          19.5 GXEF101W13
     K24F02Z KB2024 03 28.11780 10 07 12.81 +49 31 33.4          19.2 GXEF101W13
     K24F02Z KC2024 03 28.12435210 07 14.63 +49 31 07.9          20.3 GVEF101H21
     K24F02Z KC2024 03 28.13274910 07 16.86 +49 30 36.3          20.3 GVEF101H21
     K24F02Z KC2024 03 28.13694610 07 17.93 +49 30 20.5          20.4 GVEF101H21
     K24F02Z KC2024 03 28.14067710 07 18.92 +49 30 06.7          20.0 GVEF101H21
     K24F02Z KB2024 03 28.14674 10 07 20.32 +49 29 43.8          19.1 GXEF101W13
     K24F02Z mC2024 03 28.18453410 07 32.646+49 27 28.26         19.79GVEF101I52
     K24F02Z mC2024 03 28.18905910 07 33.776+49 27 11.45         20.02GVEF101I52
     K24F02Z mC2024 03 28.19358710 07 34.979+49 26 54.71         19.93GVEF101I52
     K24F02Z mC2024 03 28.19810110 07 36.084+49 26 38.08         19.65GVEF101I52
     K24F02Z KB2024 03 28.85539910 10 41.849+48 45 51.59         19.5 GXEF101K74
     K24F02Z KB2024 03 28.86240610 10 43.562+48 45 27.47         19.5 GXEF101K74
     K24F02Z KB2024 03 28.86941310 10 45.233+48 45 02.38         19.7 GXEF101K74
     K24F02Z KB2024 03 28.87560 10 10 45.47 +48 44 43.3          20.1 GXEF101M45
     K24F02Z KB2024 03 28.87747210 10 47.234+48 44 32.71         19.6 GXEF101K74
     K24F02Z KB2024 03 28.88285 10 10 47.24 +48 44 17.2          19.8 GXEF101M45
     K24F02Z KB2024 03 28.88377910 10 48.790+48 44 10.43         19.8 GXEF101K74
     K24F02Z KB2024 03 28.89148510 10 50.650+48 43 42.89         19.8 GXEF101K74
     K24F02Z KB2024 03 28.98453 10 11 13.13 +48 38 06.6          19.7 GVEF101204
     K24F02Z KB2024 03 28.99731 10 11 16.28 +48 37 19.1                VEF101204
     K24F02Z KC2024 03 29.05895010 11 38.75 +48 33 49.7          20.1 GVEF101H21
     K24F02Z KC2024 03 29.06174710 11 39.38 +48 33 40.2          20.3 GVEF101H21
     K24F02Z KC2024 03 29.06454210 11 40.06 +48 33 30.5                VEF101H21
     K24F02Z KC2024 03 29.06733910 11 40.70 +48 33 20.7                VEF101H21
     K24F02Z KB2024 03 29.17392 10 12 06.055+48 27 09.29         19.9 RZEF101H36
     K24F02Z KB2024 03 29.18266 10 12 08.102+48 26 37.90         20.4 RZEF101H36
     K24F02Z KB2024 03 29.19141 10 12 10.073+48 26 06.86         20.3 RZEF101H36
     K24F02Z  C2024 03 29.38954310 12 59.987+48 14 51.65         19.75iXEF101F52
     K24F02Z  C2024 03 29.39743310 13 01.762+48 14 23.09         19.57iXEF101F52
     K24F02Z  C2024 03 29.40529910 13 03.458+48 13 55.11         20.06iXEF101F52
     K24F02Z  C2024 03 29.41315710 13 05.148+48 13 26.79         20.29iXEF101F52
     K24F02Z KB2024 03 29.70696 10 14 18.03 +47 56 08.7          19.4 GVEF101P13
     K24F02Z KB2024 03 29.71432 10 14 19.85 +47 55 42.4          20.2 GVEF101P13
Observer details:
204 Schiaparelli Observatory.  Observer L. Buzzi.  0.84-m f/3.5 reflector +
    CMO.
F52 Pan-STARRS 2, Haleakala.  Observers J. Herman, T. Lowe, P. Minguez, A.
    Schultz, I. Smith.  Measurers K. Chambers, T. de Boer, J. Fairlamb, H.
    Gao, M. Huber, C.-C. Lin, E. Magnier, Y. Ramanjooloo, R. Wainscoat, R.
    Weryk.  1.8-m Ritchey-Chretien + CCD.
H21 Astronomical Research Observatory, Westfield.  Observer R. Holmes.
    Measurers T. Linder, R. Holmes, L. Horn.  0.76-m f/3.0 astrograph + CCD.
H36 Sandlot Observatory, Scranton.  Observer G. Hug.  0.56-m f/4.8 reflector +
    CMO.
I52 Steward Observatory, Mt. Lemmon Station.  Observer T. Beuden.  Measurers
    T. Beuden, V. F. Carvajal, D. Fay, J. B. Fazekas, D. C. Fuls, A. R. Gibbs,
    A. D. Grauer, H. Groeller, J. K. Hogan, R. A. Kowalski, S. M. Larson, G.
    J. Leonard, D. Rankin, R. L. Seaman, F. C. Shelly, K. W. Wierzchos.  1.0-m
    prime focus + CCD.
K74 Muensterschwarzach Observatory, Schwarzach.  Observer C. Gerhard.  0.30-m
    f/3.75 reflector + CMO.
M45 Starhopper Observatory, Sfantu Gheorghe.  Observer F. Ursache.  0.41-m
    f/7.5 reflector + CMO.
P13 Baihuashan Observatory, Beijing.  Observers Z. Wang, B. Liu.  Measurer Z.
    Wang.  0.28-m f/2.2 reflector + CMO.
W13 Star Quarry Observatory, Bedford.  Observer C. J. Horowitz.  0.20-m f/2
    Schmidt-Cassegrain + CMO.
Orbital elements:
2024 FZ2                                                 Earth MOID = 0.0333 AU
Epoch 2024 Mar. 31.0 TT = JDT 2460400.5                 Veres                   
M  99.63861              (2000.0)            P               Q                  
n   1.08686664     Peri.  254.71280     +0.60040854     -0.79757087             
a   0.9368827      Node   158.07174     +0.78043708     +0.56851371             
e   0.3340943      Incl.    8.96993     +0.17443492     +0.20167514             
P   0.91           H   22.39          G   0.15           U   7                  
Residuals in seconds of arc
240327 F52  0.1-  0.2+    240328 I52  0.2+  0.1+    240329 H21  0.1-  0.3+
240327 F52  0.1+  0.1+    240328 I52  0.2-  0.4+    240329 H21  0.1+  0.2+
240327 F52  0.0   0.1-    240328 K74  0.1+  0.6-    240329 H21  0.2-  0.0
240327 F52  0.1+  0.0     240328 K74  0.2+  0.4+    240329 H36  0.3-  0.0
240328 W13  0.1-  0.3-    240328 K74  0.1-  0.4+    240329 H36  0.2+  0.4-
240328 W13  0.1+  0.1+    240328 M45  0.1+  0.1+    240329 H36  0.1-  0.4-
240328 H21  0.2-  0.1-    240328 K74  0.3+  0.2-    240329 F52  0.2-  0.2+
240328 H21  0.2+  0.1-    240328 M45  0.3+  0.5+    240329 F52  0.3+  0.2-
240328 H21  0.1-  0.1-    240328 K74  0.5+  0.2+    240329 F52  0.1+  0.1+
240328 H21  0.1+  0.2+    240328 K74  0.5+  0.5+    240329 F52  0.3-  0.0
240328 W13  0.3-  0.5-    240328 204  0.0   0.2+    240329 P13  1.0-  0.7-
240328 I52  0.1+  0.1-    240328 204  0.3+  0.1+    240329 P13  0.7+  0.7-
240328 I52  0.2-  0.1-    240329 H21  0.2+  0.2+
Ephemeris:
2024 FZ2                 a,e,i = 0.94, 0.33, 9                   q = 0.6239
Date    TT    R. A. (2000) Decl.     Delta      r    Elong.  Phase     V
2024 02 28    00 00 57.3 -02 35 58   0.09347 0.9036    20.8   157.1    27.1
...
2024 03 14    04 29 26.7 +64 54 19   0.05305 0.9913    85.3    91.6    19.2
...
2024 03 22    09 17 38.2 +57 39 59   0.08830 1.0339   112.9    62.6    19.4
...
2024 03 28    10 06 36.3 +49 38 53   0.1229  1.0636   119.3    54.9    20.0
2024 03 29    10 11 19.9 +48 37 18   0.1290  1.0684   119.8    54.2    20.1
2024 03 30    10 15 32.6 +47 39 45   0.1351  1.0730   120.2    53.5    20.2
...
2024 04 05    10 33 56.5 +42 57 52   0.1726  1.1000   121.3    51.0    20.7
...
2024 04 13    10 49 48.4 +38 23 02   0.2246  1.1326   120.3    49.9    21.3
...
2024 04 28    11 12 08.6 +31 58 00   0.3259  1.1831   115.3    50.3    22.2
M. P. C. Staff               (C) Copyright 2024 MPC           M.P.E.C. 2024-F101
    
    
More information about the Iaude
mailing list